Regional Weather Roundup
Issued by NWS

Home | Current Version | Previous Version | Text Only | Print | Product List | Glossary Off
Versions: 1 2 3 4 5 6 7 8 9 10 11 12 13 14 15 16 17 18 19 20 21 22 23 24 25 26 27 28 29 30 31 32 33 34 35 36 37 38 39 40 41 42 43 44 45 46 47 48 49 50

000
ASUS45 KCYS 080010
RWRWY

WYOMING REGIONAL WEATHER ROUNDUP
NATIONAL WEATHER SERVICE CHEYENNE WY
500 PM MST WED DEC 07 2016

NOTE:  "FAIR" INDICATES FEW OR NO CLOUDS BELOW 12,000 FEET
WITH NO SIGNIFICANT WEATHER AND/OR OBSTRUCTIONS TO VISIBILITY.

WYZ001-080100-
YELLOWSTONE NATIONAL PARK

CITY           SKY/WX    TMP DP  RH WIND       PRES   REMARKS
LK YELLOWSTONE   N/A     -3  -6  87 W3        30.12R
6HR MIN TEMP:  -4; 6HR MAX TEMP:   9;

W YELLOWSTONE  NOT AVBL

$$
WYZ002>013-054>058-071-098>099-080100-
NORTHERN WYOMING

CITY           SKY/WX    TMP DP  RH WIND       PRES   REMARKS
JACKSON        FAIR       5   1  85 CALM      30.20R
CODY           FAIR      -3  -7  82 S6        30.34R WCI -15
GREYBULL       FAIR       9   0  67 SE8       30.42R WCI  -3
6HR MIN TEMP:   9; 6HR MAX TEMP:  15;

WORLAND        FAIR       2  -3  80 SE6       30.41R WCI  -9
6HR MIN TEMP:   2; 6HR MAX TEMP:  12;

SHERIDAN       FAIR       1  -8  66 CALM      30.43R
6HR MIN TEMP:   0; 6HR MAX TEMP:   6;

BUFFALO        FAIR       0  -8  69 SW3       30.34R
6HR MIN TEMP:   0; 6HR MAX TEMP:   5;

GILLETTE       FAIR      -4  -8  83 W8        30.38R WCI -19
6HR MIN TEMP:  -4; 6HR MAX TEMP:   4;

HULETT         FAIR       1  -6  71 W3        30.37R
NEWCASTLE      MOCLDY     3  -4  72 NW10      30.40R WCI -12

$$
WYZ014>020-022>026-101>103-080100-
CENTRAL WYOMING

CITY           SKY/WX    TMP DP  RH WIND       PRES   REMARKS
BIG PINEY      FAIR       3  -5  69 N7        30.16R WCI  -9
6HR MIN TEMP:   3; 6HR MAX TEMP:  14;

PINEDALE       FAIR       3  -4  72 CALM      30.17R
DUBOIS         CLOUDY     1  -4  78 S6        30.12R HAZE    WCI -10
LANDER         FAIR       5  -2  72 SW3       30.25R
6HR MIN TEMP:   5; 6HR MAX TEMP:  11;

RIVERTON       FAIR       5  -2  72 E6        30.28R WCI  -6
6HR MIN TEMP:   5; 6HR MAX TEMP:  11; 6HR PCP: TRACE;

CASPER         FAIR      -4  -9  79 W5        30.30R WCI -15
6HR MIN TEMP:  -5; 6HR MAX TEMP:   6;

DOUGLAS        FAIR      -1  -7  75 NW3       30.34R
6HR MIN TEMP:  -3; 6HR MAX TEMP:   7;


$$
WYZ021-027>030-104>119-080100-
SOUTHERN WYOMING

CITY           SKY/WX    TMP DP  RH WIND       PRES   REMARKS
EVANSTON       FAIR      10  -1  61 W6        30.15R WCI   0
6HR MIN TEMP:  10; 6HR MAX TEMP:  16;

FORT BRIDGER   FAIR      13   2  62 CALM      30.19R
ROCK SPRINGS   FAIR       8   1  73 SE3       30.18R
6HR MIN TEMP:   6; 6HR MAX TEMP:  12;

DIXON          FAIR       7  -3  63 CALM      30.23R
RAWLINS        FAIR       4  -5  66 CALM      30.18R
6HR MIN TEMP:   3; 6HR MAX TEMP:  11;

SARATOGA       FAIR       0  -6  78 S3        30.18R
LARAMIE        FAIR      -3  -7  82 N3        30.14R
6HR MIN TEMP:  -3; 6HR MAX TEMP:   4; 6HR PCP: TRACE;

CHEYENNE       FAIR       0  -6  76 N6        30.21R WCI -12
6HR MIN TEMP:   0; 6HR MAX TEMP:   6;

TORRINGTON     FAIR       7  -5  57 NW14      30.36R WCI -10
6HR MIN TEMP:   7; 6HR MAX TEMP:  13;

PINE BLUFFS    FAIR       1  -6  71 NW6       30.29R WCI -10

$$



USA.gov is the U.S. government's official web portal to all federal, state and local government web resources and services.